Weather History for Columbus, OH

Change the Weather History Date:

Saturday, January 19, 2013

  Actual Average Record
Temperature  
Mean Temperature 43 °F 29 °F  
Max Temperature 53 °F 36 °F 67 °F (1907)
Min Temperature 33 °F 22 °F -22 °F (1994)
Degree Days  
Heating Degree Days 22 36  
Month to date heating degree days 580 677  
Since 1 July heating degree days 2481 2668  
Cooling Degree Days 0 0  
Month to date cooling degree days 0 0  
Year to date cooling degree days 0 0  
Moisture  
Dew Point 24 °F    
Average Humidity 47    
Maximum Humidity 64    
Minimum Humidity 29    
Precipitation  
Precipitation 0.00 in 0.09 in 0.91 in (1986)
Month to date precipitation 1.00 1.73  
Year to date precipitation 1.00 1.73  
Snow  
Snow 0.00 in 0.30 in 5.00 in (1956)
Month to date snowfall 0.4 5.7  
Since 1 July snowfall 16.1 11.8  
Snow Depth 0.00 in    
Sea Level Pressure  
Sea Level Pressure 30.06 in    
Wind  
Wind Speed 17 mph (SSW)    
Max Wind Speed 30 mph    
Max Gust Speed 39 mph    
Visibility 10 miles    
Events      
T = Trace of Precipitation, MM = Missing Value Source: NWS Daily Summary

Daily Weather History Graph

Daily Weather History Graph

Search for Another Location

Airport:

Trip Planner

Search our weather history database for the weather conditions in past years. The results will help you decide how hot, cold, wet, or windy it might be!

Date:

Astronomy

Jan. 19, 2013 Rise Set
Actual Time 7:49 AM EST 5:35 PM EST
Civil Twilight 7:20 AM EST 6:05 PM EST
Nautical Twilight 6:46 AM EST 6:38 PM EST
Astronomical Twilight 6:14 AM EST 7:10 PM EST
Moon 12:01 PM EST (1/19) 1:22 AM EST (1/19)
Length of Visible Light 10h 45m
Length of Day
9h 46m
First Quarter, 57% of the Moon is Illuminated
Jan 19
First Quarter
Jan 26
Full
Feb 3
Last Quarter
Feb 10
New
Feb 17
First Quarter

Hourly Weather History & Observations

Time (EST) Temp. Windchill Dew Point Humidity Pressure Visibility Wind Dir Wind Speed Gust Speed Precip Events Conditions
12:51 AM 34.0 °F 26.0 °F 23.0 °F 64% 30.23 in 10.0 mi South 10.4 mph - N/A   Partly Cloudy
1:51 AM 33.8 °F 25.3 °F 23.0 °F 65% 30.19 in 10.0 mi South 11.5 mph - N/A   Partly Cloudy
2:51 AM 34.0 °F 27.2 °F 23.0 °F 64% 30.21 in 10.0 mi South 8.1 mph - N/A   Clear
3:51 AM 35.1 °F 27.9 °F 23.0 °F 61% 30.19 in 10.0 mi South 9.2 mph - N/A   Clear
4:51 AM 35.1 °F 29.3 °F 23.0 °F 61% 30.18 in 10.0 mi South 6.9 mph - N/A   Clear
5:51 AM 35.1 °F 28.6 °F 23.0 °F 61% 30.18 in 10.0 mi SSW 8.1 mph - N/A   Clear
6:51 AM 37.9 °F 28.9 °F 21.9 °F 53% 30.17 in 10.0 mi SSW 16.1 mph - N/A   Clear
7:51 AM 37.9 °F 28.5 °F 21.9 °F 53% 30.17 in 10.0 mi SSW 17.3 mph 26.5 mph N/A   Clear
8:51 AM 39.0 °F 29.9 °F 24.1 °F 55% 30.18 in 10.0 mi SSW 17.3 mph 23.0 mph N/A   Clear
9:51 AM 42.1 °F 33.1 °F 24.1 °F 49% 30.17 in 10.0 mi SSW 20.7 mph 27.6 mph N/A   Clear
10:51 AM 45.0 °F 36.4 °F 24.1 °F 44% 30.16 in 10.0 mi SSW 23.0 mph 29.9 mph N/A   Clear
11:51 AM 48.0 °F - 24.1 °F 39% 30.11 in 10.0 mi SSW 23.0 mph 29.9 mph N/A   Clear
12:51 PM 48.9 °F - 25.0 °F 39% 30.06 in 10.0 mi SSW 24.2 mph 33.4 mph N/A   Clear
1:51 PM 51.1 °F - 24.1 °F 35% 30.03 in 10.0 mi SW 24.2 mph 33.4 mph N/A   Clear
2:51 PM 53.1 °F - 23.0 °F 31% 30.00 in 10.0 mi SW 26.5 mph 36.8 mph N/A   Clear
3:51 PM 53.1 °F - 24.1 °F 32% 29.96 in 10.0 mi SSW 23.0 mph 33.4 mph N/A   Clear
4:51 PM 52.0 °F - 25.0 °F 35% 29.94 in 10.0 mi SSW 20.7 mph 31.1 mph N/A   Partly Cloudy
5:51 PM 50.0 °F - 25.0 °F 38% 29.92 in 10.0 mi SSW 18.4 mph 32.2 mph N/A   Scattered Clouds
6:51 PM 50.0 °F - 25.0 °F 38% 29.90 in 10.0 mi SSW 18.4 mph 29.9 mph N/A   Overcast
7:51 PM 48.9 °F - 26.1 °F 41% 29.92 in 10.0 mi SSW 19.6 mph - N/A   Overcast
8:51 PM 46.4 °F 39.5 °F 26.6 °F 46% 29.90 in 10.0 mi SSW 17.3 mph - N/A   Clear
9:51 PM 46.0 °F 39.9 °F 27.0 °F 47% 29.91 in 10.0 mi SSW 13.8 mph - N/A   Clear
10:51 PM 46.0 °F 38.5 °F 27.0 °F 47% 29.89 in 10.0 mi SSW 19.6 mph 27.6 mph N/A   Clear
11:51 PM 45.0 °F 37.6 °F 28.0 °F 52% 29.88 in 10.0 mi SSW 17.3 mph - N/A   Clear